User: anonymous   Login
Location: Caltech
(34.1382°N, 118.1253°W)
Time: 15:07:03
(UTC-07:00)
Language:

OAO 2 Rocket - Orbit

View from above orbital plane
View from above orbital plane
View from above satellite
View from above satellite

Ground track
Ground track

The orbit data is extracted from the following two-line orbital elements,

1  3598U 68110B   16148.91081042 +.00000084 +00000-0 +24194-4 0  9992
2  3598 034.9947 352.6686 0049644 341.8269 018.0650 14.54222010489450
Epoch (UTC): 27 May 2016 21:51:34
Eccentricity: 0.0049644
inclination: 34.9947°
perigee height: 676 km
apogee height: 747 km
right ascension of ascending node: 352.6686°
argument of perigee: 341.8269°
revolutions per day: 14.54222010
mean anomaly at epoch: 18.0650°
orbit number at epoch: 48945

The dashed part of the orbit path shows where the satellite is in the earth's shadow,  

DLR